Home > Weather > Hamamatsu > Past weeks

Flag for Japan Weather for the Past 2 Weeks in Hamamatsu, Japan

Now
69 °F

Mild.


Feels Like: 69 °F
Forecast: 58 / 73 °F
Wind: 12 mph from Southeast

Location: Omaezaki

Current Time: May 2, 2016 at 3:44:16 PM

Latest Report: May 2, 2016 at 2:00 PM


Visibility: 8 mi

Pressure: 30.11 "Hg

Humidity: 72%

Dew Point: 60 °F

Location of HamamatsuLocation

Historic Weather in Hamamatsu — Graph

°F

Hamamatsu Temperature Yesterday

Maximum temperature yesterday: 69 °F (at 2:00 PM)
Minimum temperature yesterday: 57 °F (at 5:00 AM)
Average temperature yesterday: 63 °F

High & Low Weather Summary for the Past Weeks

 TemperatureHumidityPressure
High72 °F (Apr 29, 3:00 PM)100% (Apr 22, 5:00 AM)30.29 "Hg (Apr 22, 5:00 AM)
Low49 °F (Apr 30, 5:00 AM)29% (Apr 29, 3:00 PM)29.32 "Hg (Apr 29, 12:00 AM)
Average61 °F74%29.91 "Hg
* Reported Apr 17 8:00 PM — May 2 10:00 AM, Hamamatsu, Weather by CustomWeather, © 2016

Note: Actual official high and low records may vary slightly from our data, if they occured in-between our weather recording intervals... More about our weather records

Advertising

Hamamatsu Weather History for the Previous 24 Hours

Scroll right to see more
 ConditionsComfort  
Time TempWeatherWind HumidityBarometerVisibility
10:00 AM
Mon, May 2
68 °FMild.6 mph62%30.15 "Hg9 mi
9:00 AM67 °FMild.7 mph63%30.14 "Hg8 mi
7:00 AM64 °FMild.3 mph76%30.11 "Hg8 mi
6:00 AM64 °FMild.6 mph80%30.10 "Hg7 mi
5:00 AM61 °FCool.8 mph86%30.08 "Hg7 mi
4:00 AM62 °FMild.7 mph84%30.06 "Hg8 mi
3:00 AM61 °FCool.8 mph60%30.03 "Hg12 mi
2:00 AM61 °FRefreshingly cool.8 mph58%30.01 "Hg12 mi
1:00 AM61 °FRefreshingly cool.7 mph58%30.01 "Hg12 mi
12:00 AM62 °FCool.8 mph63%30.01 "Hg9 mi
11:00 PM
Sun, May 1
64 °FMild.7 mph53%30.00 "Hg12 mi
10:00 PM64 °FMild.9 mph77%30.01 "Hg11 mi
9:00 PM65 °FMild.14 mph74%30.00 "Hg12 mi
8:00 PM66 °FMild.14 mph77%29.98 "Hg11 mi
7:00 PM65 °FMild.15 mph87%29.97 "Hg7 mi
6:00 PM66 °FMild.17 mph86%29.95 "Hg7 mi
5:00 PM66 °FMild.20 mph82%29.94 "Hg9 mi
4:00 PM67 °FMild.20 mph73%29.92 "Hg10 mi
3:00 PM67 °FMild.21 mph63%29.91 "Hg12 mi
Weather by CustomWeather, © 2016

See weather overviewHow to use our weather pages